User: anonymous   Login
Location: Unspecified
(0.0000°N, 0.0000°E)
Time: 04:01:33
(UTC+00:00)
Language:

Hubble Space Telescope - Orbit

View from above orbital plane
View from above orbital plane
View from above satellite
View from above satellite

Ground track
Ground track

The orbit data is extracted from the following two-line orbital elements,

1 20580U 90037B   19112.62322300  .00000449  00000-0  16446-4 0  9998
2 20580  28.4687 229.2964 0002533 228.3648 258.0687 15.09211030392262
Epoch (UTC): 22 April 2019 14:57:26
Eccentricity: 0.0002533
inclination: 28.4687°
perigee height: 537 km
apogee height: 540 km
right ascension of ascending node: 229.2964°
argument of perigee: 228.3648°
revolutions per day: 15.09211030
mean anomaly at epoch: 258.0687°
orbit number at epoch: 39226

The dashed part of the orbit path shows where the satellite is in the earth's shadow,  

DLR